Dewpoint
24 23 22 22 19 17 16 16 16 12 13 12 10 10 8 4 8 6 4 10 8 6 7 7 10 7 6 26 33 39 47 47 43 43 49 54 57 59 60 60 61 61 61 62 64 65 65 65 65 65 65 66 67 67 66 66 66 66 65 65 65 66 66 65 63 64 65 65 65 65 65 66 67 66 68 67 68 68 68 68 68 68 69 69 69 69
22 22 21 21 20 18 16 16 19 14 13 11 12 12 7 7 6 5 4 9 7 7 6 8 7 10 9 17 32 38 42 44 45 46 50 55 56 58 59 59 59 61 61 63 64 65 65 64 66 65 65 66 65 66 66 66 66 66 66 66 65 66 66 65 65 66 66 67 66 65 64 66 66 66 67 67 68 68 68 67 67 67 67 68 68 67
20 18 18 20 21 19 17 15 15 14 13 11 11 13 10 7 5 5 4 6 7 5 5 5 4 6 11 10 29 38 41 44 46 47 50 53 53 55 57 59 60 60 60 62 63 64 64 64 65 64 65 65 66 66 66 66 66 66 66 66 66 66 65 65 67 68 65 66 68 66 66 67 67 68 68 67 67 67 66 66 66 66 66 67 67 67
19 18 18 19 21 20 17 15 14 13 15 14 10 10 8 6 2 5 5 5 6 7 4 8 6 6 11 12 22 37 39 43 45 46 49 51 54 55 57 59 60 60 58 61 62 63 64 64 64 64 64 65 66 65 66 66 66 65 65 66 66 66 66 66 67 66 66 67 67 68 69 68 68 66 65 65 66 66 65 64 64 65 66 65 66 65
14 18 20 20 20 20 18 16 14 15 17 16 11 7 7 5 5 3 4 4 4 6 5 5 12 9 9 8 12 33 39 44 48 50 51 53 54 57 59 60 61 60 59 61 62 63 64 64 64 64 64 65 64 65 65 65 65 65 66 66 66 66 66 66 67 65 66 67 67 67 66 66 65 65 65 64 64 65 64 64 64 64 64 65 66 66
10 17 15 19 20 17 19 17 15 13 10 10 10 9 8 7 5 3 4 3 5 7 6 12 10 10 12 7 11 30 34 40 45 48 49 51 54 56 58 58 59 61 59 60 61 62 63 63 64 64 64 64 64 65 66 65 66 67 66 66 67 66 66 66 66 67 66 66 66 65 64 64 64 63 63 63 63 63 64 63 63 63 64 64 64 65
6 15 18 17 17 14 17 15 14 11 9 11 10 12 11 8 6 3 1 4 5 6 8 10 6 11 11 13 26 29 31 36 43 46 46 49 53 54 57 58 59 59 59 59 61 62 63 63 63 64 64 64 64 66 66 65 66 67 67 67 67 66 66 66 66 67 67 66 66 65 64 64 65 64 64 65 64 64 62 62 61 63 63 63 63 62
9 15 19 19 17 17 17 15 14 11 9 8 10 11 11 10 6 2 4 4 6 6 6 5 3 5 7 13 23 32 38 37 39 44 47 49 51 54 56 57 58 58 59 59 60 62 62 63 63 63 63 66 66 65 66 65 65 66 67 66 66 66 65 66 66 66 66 65 66 66 65 64 65 64 62 62 62 61 62 62 62 63 61 60 62 60
13 13 19 18 19 18 16 15 14 12 8 7 9 10 9 7 6 4 3 4 4 6 6 7 4 6 9 18 26 34 35 35 35 41 45 47 49 53 55 56 57 58 58 59 60 62 63 63 63 63 63 65 64 65 64 63 63 65 65 66 66 67 66 66 66 66 67 66 66 67 65 64 65 63 61 60 60 60 61 61 63 61 60 59 59 59
12 14 20 20 17 15 15 16 15 12 8 8 9 10 9 8 6 4 4 4 6 11 14 13 6 4 4 17 29 33 33 33 34 38 42 45 49 51 54 56 57 58 57 58 61 61 63 63 63 63 64 63 64 65 64 64 64 65 64 63 64 65 66 66 66 67 67 66 66 65 65 64 63 61 61 62 61 60 60 60 60 60 59 58 58 58
13 20 24 21 18 16 16 14 14 13 9 7 10 9 9 8 9 10 9 8 10 11 11 13 8 1 5 13 28 34 33 30 30 37 42 46 50 51 54 56 57 56 57 57 59 61 62 63 64 64 63 63 63 64 65 65 64 65 63 63 64 65 66 66 66 67 66 66 66 65 65 62 61 62 61 60 59 59 60 59 59 58 58 58 58 58
16 19 22 22 21 18 17 15 14 13 9 6 7 7 8 11 11 12 13 11 8 8 8 5 6 3 6 7 26 36 33 26 32 37 40 44 46 51 56 55 56 56 57 58 60 61 61 63 64 63 62 63 63 64 64 65 65 64 63 64 64 65 64 65 65 67 65 66 64 64 64 62 62 61 60 60 59 59 58 59 58 57 57 57 57 57
16 22 21 22 25 19 16 13 13 13 8 6 6 7 12 9 11 10 10 12 11 10 9 3 8 11 5 10 17 33 35 28 32 35 38 41 46 51 54 56 56 57 58 59 60 62 62 62 62 63 62 63 63 63 64 65 65 64 64 64 64 63 64 65 66 65 65 64 63 64 63 63 62 62 62 61 60 59 59 58 57 56 55 55 56 56
17 20 19 21 21 21 18 14 13 10 8 6 5 9 10 9 9 11 7 10 8 8 7 2 8 14 12 6 19 33 36 30 32 33 35 44 48 50 52 56 57 57 58 60 61 62 62 63 63 63 62 62 63 63 63 64 64 64 63 63 64 64 64 64 65 64 65 65 64 64 64 63 61 62 62 62 61 61 61 58 57 56 55 55 56 56
14 16 19 20 19 20 18 14 11 10 8 4 2 5 11 11 10 12 6 9 9 5 11 9 16 18 11 10 10 31 36 32 31 32 37 42 47 51 54 56 57 58 58 60 61 61 62 63 63 62 62 63 62 63 63 64 64 63 63 63 64 63 64 64 64 64 64 64 65 64 64 63 61 60 60 61 61 61 58 58 57 56 56 55 55 56
8 13 19 22 20 19 18 16 13 10 7 4 2 5 10 11 13 8 12 10 11 9 13 12 17 17 15 30 17 26 31 30 30 30 34 40 42 50 55 56 57 57 57 58 60 60 62 62 63 62 63 63 62 63 63 63 64 63 63 63 63 63 63 64 64 63 63 64 64 63 63 63 62 61 60 59 60 60 59 57 56 56 55 55 55 56
9 15 18 19 20 18 18 17 14 10 9 6 1 6 7 8 9 18 20 26 21 14 11 17 19 21 25 26 34 24 24 27 30 30 31 36 45 51 55 57 57 58 57 58 59 61 62 62 63 62 62 62 62 63 63 63 63 63 64 64 63 63 63 63 64 64 63 64 63 63 62 62 61 60 59 58 58 57 56 56 55 54 54 55 55 55
11 13 16 18 18 18 18 18 14 10 7 5 4 4 9 10 11 18 9 14 13 13 14 19 14 14 16 15 31 29 24 29 35 37 35 44 54 55 56 57 57 57 58 58 59 61 61 62 62 62 62 63 63 63 63 63 64 64 64 64 64 63 62 63 64 63 63 63 63 62 61 61 60 59 59 58 57 56 55 55 54 54 53 54 54 54
12 13 15 16 16 18 19 20 12 10 9 4 3 5 5 15 11 16 13 12 12 12 12 18 11 9 9 20 26 28 23 27 34 40 43 49 52 53 55 56 56 58 58 58 57 59 60 61 62 62 63 62 63 63 63 63 63 64 64 64 63 64 63 64 64 63 63 63 62 61 61 60 59 59 58 57 55 56 54 53 53 53 53 54 54 53
18 16 14 16 17 18 18 18 15 11 9 11 7 5 9 16 16 13 15 14 12 9 13 12 11 8 11 17 22 24 23 32 30 36 41 48 51 52 54 55 56 58 58 58 58 59 60 61 61 62 62 62 63 63 63 63 63 63 64 63 63 62 62 62 63 63 62 63 62 60 60 60 58 57 56 56 55 54 52 51 52 52 53 54 53 53
20 26 13 15 16 17 15 17 14 11 10 9 8 7 8 18 13 11 20 12 8 9 8 11 10 11 20 17 21 22 23 29 31 36 42 45 50 53 54 56 57 57 58 58 58 58 59 61 61 62 63 62 62 63 62 63 62 63 63 63 62 62 62 61 62 62 61 61 61 60 59 59 58 57 55 54 54 53 52 52 51 51 52 52 53 52
19 21 17 14 15 14 15 16 14 11 10 7 7 8 6 11 11 11 12 10 11 9 11 12 14 17 19 14 28 24 23 25 27 35 43 44 46 52 55 58 58 58 58 58 58 59 60 61 61 62 62 62 62 62 62 62 63 61 62 62 62 61 60 60 61 61 60 61 60 59 59 59 58 55 54 54 53 53 51 50 51 52 51 53 52 51
26 22 18 14 13 14 14 15 15 12 10 7 6 7 6 13 15 12 11 13 9 8 10 11 12 17 33 19 24 26 25 23 25 28 35 41 45 49 55 57 58 58 58 58 58 59 60 60 61 61 61 62 62 61 62 62 62 61 61 61 61 60 60 60 59 59 59 60 59 58 58 57 55 54 54 54 52 51 50 51 51 51 52 51 50 50
25 25 18 12 11 14 13 14 16 14 11 8 6 4 3 8 10 13 15 17 12 16 12 13 12 18 38 46 47 49 49 50 48 34 34 43 47 52 55 57 58 58 58 58 58 59 59 60 61 61 61 61 60 61 60 60 60 60 60 60 60 60 60 59 59 58 58 58 58 58 56 55 55 55 55 53 52 51 51 50 50 50 51 50 49 47
21 22 15 12 12 11 12 11 12 13 11 11 9 10 5 4 8 15 13 22 13 15 10 11 6 16 40 49 43 39 40 41 45 51 53 54 55 56 57 57 57 57 57 59 59 59 60 60 60 60 60 60 60 60 60 59 59 59 59 60 60 59 59 58 58 57 58 57 57 56 55 54 53 53 53 52 51 51 50 50 50 50 49 50 49 48
21 23 18 11 13 11 10 11 12 13 14 15 12 9 9 5 14 16 13 15 12 17 12 11 5 25 38 38 35 37 36 37 39 44 51 55 56 56 56 56 55 56 57 58 58 59 60 60 59 59 60 59 59 59 59 59 59 59 59 59 60 59 58 57 57 57 56 56 55 54 53 53 53 52 51 51 50 49 49 49 49 49 50 48 47 48
28 29 27 17 12 10 13 12 13 14 13 12 12 10 10 8 7 16 18 13 10 19 18 18 17 25 33 35 34 37 40 41 45 48 47 50 54 55 56 56 56 56 56 58 59 60 60 60 60 59 60 59 59 59 58 58 58 58 58 59 59 59 58 57 57 56 55 54 54 53 52 52 52 51 50 50 49 49 48 48 49 48 48 47 47 46
28 24 29 29 24 18 12 11 10 11 12 12 12 12 9 11 13 17 15 12 17 17 9 18 22 23 21 22 36 40 40 43 49 51 50 51 54 54 55 55 53 55 57 58 60 59 59 59 60 59 59 59 59 59 58 58 58 57 57 57 57 57 57 57 57 56 55 54 53 52 52 51 50 50 49 48 48 47 48 48 48 48 48 47 46 45
30 24 27 28 23 21 18 15 11 10 10 13 13 16 16 12 16 18 18 16 21 15 8 20 25 26 22 23 31 36 40 45 48 51 52 54 54 54 54 54 54 55 57 58 59 60 59 58 58 58 59 59 58 58 58 58 57 57 57 57 57 56 56 56 56 55 54 53 51 50 50 49 49 48 47 46 46 47 47 47 48 48 47 47 46 46
31 24 30 26 26 26 24 20 15 10 14 10 12 12 13 15 17 18 17 16 21 22 21 20 23 27 27 23 29 42 46 48 50 53 54 53 53 53 53 53 53 55 56 57 58 58 58 58 58 58 58 58 58 57 57 57 56 56 56 56 56 56 55 55 55 53 52 50 49 49 48 47 47 46 46 45 46 46 47 47 48 48 47 46 46 45
32 24 30 28 24 24 27 24 19 15 16 15 10 11 11 12 12 16 19 21 23 21 21 22 26 25 23 42 44 50 51 51 51 51 52 53 52 53 52 52 53 54 56 58 58 58 58 58 57 57 57 57 57 57 57 57 56 56 56 55 55 54 54 53 53 51 50 49 48 47 46 46 46 45 44 45 45 46 46 47 48 47 46 46 46 46
32 27 27 28 22 23 25 21 17 18 16 15 15 16 13 15 19 18 17 21 22 22 22 23 19 17 23 43 48 51 50 50 51 51 52 52 52 52 52 53 53 53 56 58 58 58 57 57 57 57 56 57 57 57 57 56 56 56 55 54 53 53 53 53 52 51 49 48 47 46 45 45 44 44 44 45 44 45 45 46 46 46 45 46 47 46
30 29 26 23 20 23 28 19 20 19 17 15 19 17 18 18 17 18 16 19 24 23 17 14 11 16 42 43 43 50 49 49 50 51 52 52 52 52 52 53 53 53 55 58 58 57 57 57 57 57 57 57 56 56 57 56 56 56 55 55 54 53 53 52 51 50 48 47 46 46 46 45 44 44 44 44 44 44 45 44 44 44 45 46 47 46
30 30 26 28 24 21 28 26 24 18 13 11 20 23 20 20 17 19 20 25 27 23 17 16 15 30 44 44 38 47 49 49 51 52 52 52 53 53 52 53 53 54 54 55 56 57 58 57 57 57 57 57 57 56 57 57 56 56 56 55 54 55 53 51 50 48 48 47 47 46 46 45 44 44 44 44 44 44 43 43 43 45 45 46 47 46
30 29 25 28 23 18 24 26 18 15 14 37 34 27 21 20 14 17 23 23 22 18 20 19 16 23 43 40 46 52 52 52 53 52 51 51 53 53 53 53 54 55 55 56 56 56 57 57 58 58 57 57 57 57 57 55 56 55 54 54 54 54 53 51 49 49 48 47 46 46 46 46 45 45 44 43 43 43 42 42 44 44 44 45 45 46
28 27 26 26 23 22 19 16 15 12 34 38 36 36 36 24 18 21 22 19 18 18 20 21 22 23 44 45 48 52 52 53 53 53 52 52 54 54 55 54 55 56 56 56 56 57 57 58 58 57 57 57 57 56 55 55 55 53 53 53 53 53 52 51 50 48 47 46 45 46 46 46 46 44 43 43 42 42 41 43 44 44 47 47 48 48
33 30 28 25 25 21 15 13 17 34 35 33 31 33 25 23 27 22 15 16 23 21 24 23 22 31 45 49 51 51 52 52 51 52 53 53 53 55 55 55 56 56 56 57 58 58 58 58 59 58 57 57 56 56 55 55 55 54 53 52 52 52 52 51 49 47 47 46 45 45 45 45 44 43 42 42 41 41 42 44 45 45 45 45 45 44
33 31 31 28 25 25 13 13 17 20 17 29 37 34 39 43 37 26 20 16 23 23 27 27 27 35 46 48 50 51 53 51 48 50 53 53 53 55 55 56 56 56 57 57 57 58 58 58 58 58 57 56 57 56 55 55 55 53 52 52 52 51 51 50 49 48 47 46 45 45 44 43 41 41 41 41 40 41 42 42 43 43 44 43 43 43
33 33 31 27 23 20 20 14 13 15 28 35 38 38 42 41 39 41 22 12 30 36 37 33 30 37 46 47 49 51 51 46 43 49 52 54 54 54 54 55 55 56 56 57 57 58 57 57 57 56 56 56 55 55 55 55 54 53 52 51 51 51 50 50 49 48 47 46 45 43 42 41 41 40 40 40 40 42 41 41 41 42 43 42 43 42
35 32 29 25 25 21 21 14 15 26 29 39 41 40 38 42 44 30 11 11 40 42 42 42 39 44 47 48 49 51 48 41 46 51 55 54 56 55 56 55 55 55 55 56 57 58 58 58 57 56 56 56 55 55 54 54 54 53 52 50 50 50 49 49 48 47 47 46 45 43 42 42 41 41 40 39 40 39 38 38 38 40 39 38 37 38
30 27 25 23 21 20 24 17 22 30 37 42 42 41 37 40 37 17 12 25 42 44 44 45 44 48 50 51 51 49 51 52 52 54 56 55 54 56 56 56 56 56 55 56 57 54 56 56 56 55 56 57 56 55 54 53 53 52 52 51 51 51 50 50 48 47 46 45 44 43 42 41 41 41 40 39 40 41 41 40 40 40 39 37 36 36
29 26 23 26 22 19 22 18 24 31 37 43 42 36 39 34 18 11 36 44 46 46 48 46 47 50 52 53 52 53 54 52 54 56 56 54 54 55 55 56 56 56 56 55 56 56 56 56 57 57 56 56 55 54 54 53 53 52 52 52 52 52 51 50 48 47 46 45 44 43 42 41 41 41 41 41 42 42 42 41 39 38 38 35 37 39
28 25 22 22 25 23 24 23 23 25 38 46 46 33 35 34 33 43 46 48 48 48 49 47 49 50 52 53 55 56 54 54 56 55 55 55 55 55 55 55 55 55 56 58 57 56 55 56 56 56 56 56 55 54 54 54 53 53 52 52 53 52 51 49 49 47 46 46 44 44 43 42 42 42 42 42 43 42 42 41 40 39 38 37 38 40
31 25 23 26 27 19 20 24 27 37 42 47 47 36 46 47 47 49 48 46 50 50 49 47 48 51 53 55 54 54 54 56 56 55 55 55 55 55 55 56 56 56 56 57 57 56 55 55 56 56 56 55 54 54 54 54 53 52 52 53 53 52 50 49 48 47 47 46 46 46 44 42 41 41 42 43 42 42 43 41 40 38 37 37 37 37
33 31 35 25 31 26 26 31 44 44 45 46 48 47 49 50 50 50 51 50 49 48 51 49 49 52 53 55 55 54 53 56 56 55 55 55 55 55 55 55 56 55 56 57 55 55 55 54 55 55 55 55 55 54 54 54 53 53 53 54 53 50 49 48 48 48 47 46 45 45 44 42 42 42 42 42 42 42 42 42 40 36 34 36 34 33
38 39 40 35 32 37 36 39 44 44 47 47 47 48 48 50 50 51 51 50 51 51 51 51 51 51 53 55 54 54 53 54 57 55 54 55 55 55 56 56 56 56 57 56 56 55 54 54 55 55 55 55 55 54 54 54 54 53 54 53 51 50 49 49 48 47 46 45 45 45 43 43 42 42 42 43 42 43 42 41 37 34 33 34 31 31
38 39 39 33 37 35 34 44 44 43 46 48 46 47 49 50 50 51 51 50 51 52 52 53 52 52 53 55 55 54 54 53 55 56 56 54 54 56 56 56 57 57 57 56 56 55 55 54 54 54 54 54 55 54 53 54 54 54 54 54 52 51 49 48 48 47 47 47 46 47 46 43 42 42 43 42 41 41 41 39 37 37 35 33 31 31
37 40 37 38 38 31 36 44 44 44 44 46 46 45 47 48 50 51 51 52 52 53 53 54 54 52 53 54 54 53 53 54 54 55 55 54 54 54 55 56 57 57 57 57 56 55 55 55 55 54 54 54 54 54 53 53 52 53 54 53 51 50 49 48 48 48 48 46 46 46 47 45 40 42 42 41 41 42 40 39 39 37 36 33 33 31
39 40 31 39 34 33 37 41 42 44 44 45 47 48 48 49 49 51 51 51 50 51 52 52 54 54 53 53 55 54 53 53 55 55 54 54 53 54 55 56 57 57 57 57 56 56 55 54 54 54 54 54 54 54 53 53 53 52 52 50 49 49 48 48 48 48 47 46 46 46 45 45 44 43 43 42 42 42 41 40 40 38 38 38 36 36
39 36 36 35 32 29 35 42 44 38 36 43 45 45 47 49 50 50 48 48 49 49 51 51 51 53 53 55 54 54 53 52 54 56 54 54 54 54 55 56 56 57 57 57 56 56 55 55 55 55 54 53 53 53 53 54 53 53 51 49 49 48 48 47 47 47 46 46 45 45 44 44 43 43 42 43 44 41 42 36 37 40 40 38 37 36
36 41 38 32 31 32 42 45 46 45 45 46 46 46 47 49 49 48 48 49 48 49 49 50 50 51 51 52 53 53 53 53 54 55 54 53 54 55 55 56 56 56 56 56 56 56 56 55 54 54 53 53 53 52 52 52 51 51 50 49 48 48 47 46 46 45 46 45 45 44 45 44 43 43 42 44 43 42 41 40 40 34 35 36 38 36